Weather in Sart-Abdrashevo

Russia / Kurgan Oblast     54°46′36″N   62°14′54″E
temp.,
°C
wind,
m/s
gust,
m/s
humid.,
%
clouds,
%
prec.,
mm/h
press.,
hPa
HPBL,
m
8 august, mon
mon823:00+19ne337893 0.1 101840
02:00+18n228659 0.7 101817
05:00+17nne339274 0.7 101833
08:00+20nne3479100 0.0 1019216
11:00+24ne4556100 0.0 10181022
14:00+26ene4646100 0.0 10182036
17:00+26ene4545100 0.0 10171609
20:00+22nne2359100 0.0 101721
9 august, tue
tue923:00+19nne356928 0.0 101878
02:00+17se227716 0.0 101811
05:00+16nnw11795 0.0 101811
08:00+20n23675 0.0 1019223
11:00+25n45510 0.0 10181390
14:00+27nne6741100 0.0 10172524
17:00+24ene255890 0.0 1017151
20:00+23nnw226142 0.0 101717
10 august, wed
wed1023:00+20n236626 0.0 101719
02:00+18ne11770 0.3 101711
05:00+17n22810 0.3 101811
08:00+21n22685 0.0 1018175
11:00+26nnw22503 0.0 1018782
14:00+28nne333928 0.0 10172393
17:00+27ne224998 0.0 101657
20:00+24w1154100 0.0 101611
11 august, thu
thu1123:00+21ne3464100 0.0 1017103
02:00+19s227488 0.1 101617
05:00+18ssw237710 0.1 101628
08:00+21sw22633 0.0 1017180
11:00+26sw33480 0.0 1016746
14:00+29sw454019 0.0 10142203
17:00+26ssw355098 0.0 1013250
20:00+24wsw2559100 0.4 1012170
12 august, fri
fri1223:00+17n3791100 1.4 1014153
02:00+17wsw3492100 0.3 101384
05:00+15wnw511955 0.3 1013352
08:00+16wnw711805 0.0 1014652
11:00+18wnw8963100 0.0 10141293
14:00+20nw795329 0.1 10131588
17:00+20nw6950100 0.1 10131481
20:00+18wnw51151100 0.0 1013772